Location: Vale
(35.4830°N, 81.3830°W)
Time: 09:33:39
(UTC-04:00)

Amateur Radio Satellites - All Passes

Search period start: 17 September 2014 09:03
Search period end: 18 September 2014 09:03
Location: Vale, 35.4830°N, 81.3830°W

Satellite Date Start Highest point End Downlink Frequencies (MHz)
Time Altitude Azimuth
HO-68 17 Sep 09:27:27 09:33:13 26° 96° (E) 09:38:57 435.675 MHz FM
MaSat-1 17 Sep 09:30:17 09:35:16 80° 112° (ESE) 09:40:19 437.345 MHz
RS-15 17 Sep 09:34:14 09:38:55 13° 346° (NNW) 09:43:39 29.354 - 29.394 USB, Beacon 29.352 USB
UKube-1 17 Sep 10:05:14 10:08:21 19° 95° (E) 10:11:26 145.840 MHz, 145.915 MHz
SO-50 17 Sep 10:16:13 10:19:08 16° 252° (WSW) 10:22:04 436.795 FM
UOSAT-12 17 Sep 10:27:15 10:31:55 57° 58° (ENE) 10:36:29 437.025 FM, 437.400 FM
ISS 17 Sep 10:33:57 10:36:50 27° 34° (NE) 10:39:43 145.800 FM
FUNcube-1 17 Sep 11:09:11 11:13:17 31° 97° (E) 11:17:19 145.950 - 145.970 MHz USB
MaSat-1 17 Sep 11:10:21 11:12:37 13° 308° (NW) 11:14:54 437.345 MHz
HO-68 17 Sep 11:14:14 11:21:08 53° 291° (WNW) 11:28:02 435.675 MHz FM
Oscar 11 17 Sep 11:26:19 11:30:37 63° 285° (WNW) 11:34:53 145.825 FM, Beacon 2401.500 USB
UKube-1 17 Sep 11:40:42 11:44:33 31° 289° (WNW) 11:48:23 145.840 MHz, 145.915 MHz
RS-15 17 Sep 11:51:34 11:58:12 17° 25° (NNE) 12:04:55 29.354 - 29.394 USB, Beacon 29.352 USB
UOSAT-12 17 Sep 12:09:20 12:11:31 13° 253° (WSW) 12:13:41 437.025 FM, 437.400 FM
ISS 17 Sep 12:10:40 12:13:30 26° 229° (SW) 12:16:19 145.800 FM
Sapphire 17 Sep 12:38:07 12:42:49 31° 108° (ESE) 12:47:32 437.095 MHz 1200 baud AX-25 AFSK
FUNcube-1 17 Sep 12:45:53 12:49:27 22° 291° (WNW) 12:52:59 145.950 - 145.970 MHz USB
PCSat 17 Sep 13:04:41 13:09:59 62° 113° (ESE) 13:15:20 145.825 MHz
Oscar 16 17 Sep 13:18:06 13:22:14 25° 68° (ENE) 13:26:22 437.025 USB, Beacon 2401.1428
JAS-1B 17 Sep 13:28:42 13:35:31 27° 66° (ENE) 13:41:32 435.800 - 435.900 CW/SSB
AO-Echo 17 Sep 13:51:55 13:55:32 22° 68° (ENE) 13:59:07 ?
ITAMSAT 1 17 Sep 13:56:26 14:00:26 23° 67° (ENE) 14:04:27 435.822 SSB
Uribyol 2 17 Sep 14:00:56 14:05:14 28° 68° (ENE) 14:09:34 436.500 FM
RS-15 17 Sep 14:03:00 14:13:52 55° 54° (NE) 14:25:07 29.354 - 29.394 USB, Beacon 29.352 USB
TMSAT-1 17 Sep 14:12:09 14:12:53 10° 61° (ENE) 14:13:37 436.925 FM
Oscar 19 17 Sep 14:17:39 14:22:51 88° 257° (WSW) 14:28:05 437.125 CW, 437.150 USB
Sapphire 17 Sep 14:21:23 14:26:08 31° 304° (NW) 14:30:57 437.095 MHz 1200 baud AX-25 AFSK
AO-27 17 Sep 14:29:36 14:34:35 51° 72° (ENE) 14:39:35 436.795 MHz FM
AO-7 17 Sep 14:48:04 14:51:21 13° 51° (NE) 14:54:38 29.400 - 29.500 MHz
PCSat 17 Sep 14:50:12 14:53:49 18° 310° (NW) 14:57:28 145.825 MHz
Oscar 16 17 Sep 14:56:40 15:01:21 35° 262° (W) 15:06:05 437.025 USB, Beacon 2401.1428
Gurwin Techsat 1B 17 Sep 15:08:14 15:13:23 54° 73° (ENE) 15:18:33 435.225 FM
JAS-1B 17 Sep 15:16:42 15:25:41 63° 258° (WSW) 15:33:18 435.800 - 435.900 CW/SSB
Oscar 10/S400 17 Sep 15:24:52 15:43:54 32° 149° (SSE) 16:01:30 145.825 - 145.975 CW/USB, Beacon 145.810 USB
AO-Echo 17 Sep 15:29:49 15:34:06 32° 262° (W) 15:38:21 ?
ITAMSAT 1 17 Sep 15:34:58 15:39:41 36° 262° (W) 15:44:26 435.822 SSB
Uribyol 2 17 Sep 15:40:04 15:44:34 30° 263° (W) 15:49:07 436.500 FM
TMSAT-1 17 Sep 15:46:43 15:52:00 88° 257° (WSW) 15:57:19 436.925 FM
AO-27 17 Sep 16:11:12 16:14:20 16° 267° (W) 16:17:29 436.795 MHz FM
RS-15 17 Sep 16:15:48 16:25:52 40° 253° (WSW) 16:36:21 29.354 - 29.394 USB, Beacon 29.352 USB
AO-7 17 Sep 16:34:23 16:42:36 68° 69° (ENE) 16:50:49 29.400 - 29.500 MHz
Uosat F 17 Sep 16:36:57 16:41:44 48° 72° (ENE) 16:46:31 435.120 FM
Gurwin Techsat 1B 17 Sep 16:50:31 16:53:38 16° 267° (W) 16:56:45 435.225 FM
OPAL 17 Sep 17:33:18 17:37:51 31° 99° (E) 17:42:18 ?
Hamsat 17 Sep 17:42:11 17:45:22 20° 69° (ENE) 17:48:32 145.90 MHz
Saudisat 1A 17 Sep 17:42:24 17:46:20 33° 113° (ESE) 17:50:18 436.775 MHz
Uosat F 17 Sep 18:17:41 18:20:44 16° 266° (W) 18:23:47 435.120 FM
AO-7 17 Sep 18:29:41 18:35:52 23° 265° (W) 18:42:05 29.400 - 29.500 MHz
JAS-2 17 Sep 18:39:49 18:45:15 84° 257° (WSW) 18:50:27 435.800 - 435.900 CW/SSB, 435.910 FM
OPAL 17 Sep 19:12:14 19:16:35 28° 294° (WNW) 19:20:51 ?
SO-67 17 Sep 19:12:35 19:15:21 23° 72° (ENE) 19:18:08 435.3500 MHz FM
Hamsat 17 Sep 19:17:14 19:21:05 30° 263° (W) 19:24:57 145.90 MHz
Saudisat 1A 17 Sep 19:22:29 19:25:57 22° 309° (NW) 19:29:26 436.775 MHz
MaSat-1 17 Sep 19:27:13 19:30:59 89° 67° (ENE) 19:34:10 437.345 MHz
STRAND 1 17 Sep 19:48:51 19:53:44 43° 99° (E) 19:58:36 ?
HO-68 17 Sep 19:55:32 19:59:07 15° 57° (ENE) 20:02:42 435.675 MHz FM
KITSAT 1 17 Sep 20:00:44 20:08:34 57° 112° (ESE) 20:16:25 435.175 FM
SO-67 17 Sep 20:46:16 20:48:20 15° 266° (W) 20:50:25 435.3500 MHz FM
UKube-1 17 Sep 20:59:32 21:01:13 12° 65° (ENE) 21:02:54 145.840 MHz, 145.915 MHz
STRAND 1 17 Sep 21:28:56 21:32:35 20° 294° (WNW) 21:36:13 ?
Sapphire 17 Sep 21:29:49 21:32:59 15° 48° (NE) 21:36:08 437.095 MHz 1200 baud AX-25 AFSK
HO-68 17 Sep 21:38:38 21:45:46 86° 74° (ENE) 21:52:57 435.675 MHz FM
AO-40 17 Sep 21:48:41 03:21:29 44° 149° (SSE) 04:56:02 Beacon 2401.320
PCSat 17 Sep 21:56:06 22:00:40 27° 54° (NE) 22:05:13 145.825 MHz
KITSAT 1 17 Sep 21:57:18 22:04:18 32° 310° (NW) 22:11:21 435.175 FM
FUNcube-1 17 Sep 22:03:40 22:06:32 17° 67° (ENE) 22:09:27 145.950 - 145.970 MHz USB
Oscar 11 17 Sep 22:17:59 22:22:18 68° 76° (ENE) 22:26:39 145.825 FM, Beacon 2401.500 USB
UKube-1 17 Sep 22:32:42 22:36:55 53° 259° (W) 22:41:10 145.840 MHz, 145.915 MHz
SO-50 17 Sep 22:46:52 22:50:48 32° 113° (ESE) 22:54:50 436.795 FM
Sapphire 17 Sep 23:11:33 23:16:58 74° 246° (WSW) 23:22:22 437.095 MHz 1200 baud AX-25 AFSK
HO-68 17 Sep 23:30:50 23:34:11 14° 269° (W) 23:37:33 435.675 MHz FM
FUNcube-1 17 Sep 23:38:35 23:42:35 36° 262° (W) 23:46:42 145.950 - 145.970 MHz USB
PCSat 17 Sep 23:39:10 23:44:08 38° 250° (WSW) 23:49:04 145.825 MHz
SO-50 18 Sep 00:27:44 00:31:22 24° 309° (NW) 00:35:06 436.795 FM
UOSAT-12 18 Sep 00:35:46 00:39:54 34° 113° (ESE) 00:44:07 437.025 FM, 437.400 FM
Saudisat 1A 18 Sep 02:12:56 02:15:13 14° 46° (NE) 02:17:30 436.775 MHz
UOSAT-12 18 Sep 02:16:20 02:20:05 24° 309° (NW) 02:23:55 437.025 FM, 437.400 FM
Uribyol 2 18 Sep 02:18:27 02:20:24 12° 91° (E) 02:22:20 436.500 FM
Oscar 19 18 Sep 02:32:39 02:37:32 42° 99° (E) 02:42:22 437.125 CW, 437.150 USB
AO-27 18 Sep 02:46:20 02:50:27 23° 95° (E) 02:54:33 436.795 MHz FM
JAS-1B 18 Sep 03:06:33 03:11:55 40° 99° (E) 03:17:17 435.800 - 435.900 CW/SSB
PANSAT 18 Sep 03:07:37 03:10:29 20° 167° (SSE) 03:13:20 not established
Oscar 16 18 Sep 03:10:55 03:16:07 77° 285° (WNW) 03:21:15 437.025 USB, Beacon 2401.1428
ISS 18 Sep 03:13:55 03:17:04 41° 133° (SE) 03:20:13 145.800 FM
Gurwin Techsat 1B 18 Sep 03:28:00 03:32:31 28° 96° (E) 03:37:00 435.225 FM
AO-Echo 18 Sep 03:39:01 03:43:52 84° 284° (WNW) 03:48:51 ?
ITAMSAT 1 18 Sep 03:50:21 03:55:34 81° 285° (WNW) 04:00:47 435.822 SSB
Saudisat 1A 18 Sep 03:50:50 03:55:12 63° 243° (WSW) 03:59:32 436.775 MHz
Uribyol 2 18 Sep 03:55:05 04:00:17 68° 286° (WNW) 04:05:27 436.500 FM
KITSAT 1 18 Sep 03:58:25 04:03:39 18° 41° (NE) 04:08:52 435.175 FM
TMSAT-1 18 Sep 04:05:49 04:10:56 48° 100° (E) 04:16:01 436.925 FM
Oscar 19 18 Sep 04:12:48 04:16:32 21° 294° (WNW) 04:20:15 437.125 CW, 437.150 USB
RS-15 18 Sep 04:23:04 04:33:21 45° 109° (ESE) 04:43:26 29.354 - 29.394 USB, Beacon 29.352 USB
AO-27 18 Sep 04:25:16 04:29:59 36° 290° (WNW) 04:34:43 436.795 MHz FM
Oscar 10/S400 18 Sep 04:27:36 05:34:38 22° 251° (WSW) 08:03:12 145.825 - 145.975 CW/USB, Beacon 145.810 USB
AO-7 18 Sep 04:40:24 04:47:01 26° 96° (E) 04:53:36 29.400 - 29.500 MHz
OPAL 18 Sep 04:45:04 04:49:51 40° 69° (ENE) 04:54:41 ?
PANSAT 18 Sep 04:46:51 04:50:11 28° 179° (S) 04:53:31 not established
Uosat F 18 Sep 04:48:39 04:52:09 19° 94° (E) 04:55:39 435.120 FM
ISS 18 Sep 04:51:22 04:53:54 20° 329° (NNW) 04:56:26 145.800 FM
JAS-1B 18 Sep 04:58:05 05:02:19 22° 295° (WNW) 05:06:31 435.800 - 435.900 CW/SSB
Gurwin Techsat 1B 18 Sep 05:07:47 05:12:25 31° 291° (WNW) 05:17:02 435.225 FM
TMSAT-1 18 Sep 05:46:49 05:50:27 19° 294° (WNW) 05:54:04 436.925 FM
KITSAT 1 18 Sep 05:52:16 06:00:23 79° 62° (ENE) 06:08:26 435.175 FM
JAS-2 18 Sep 05:52:19 05:55:38 15° 93° (E) 05:59:07 435.800 - 435.900 CW/SSB, 435.910 FM
OPAL 18 Sep 06:24:56 06:28:48 21° 263° (W) 06:32:44 ?
Uosat F 18 Sep 06:26:21 06:31:04 42° 289° (WNW) 06:35:46 435.120 FM
PANSAT 18 Sep 06:26:58 06:29:54 21° 192° (SSW) 06:32:51 not established
AO-7 18 Sep 06:32:04 06:40:09 61° 292° (WNW) 06:48:14 29.400 - 29.500 MHz
RS-15 18 Sep 06:35:01 06:45:32 48° 309° (NW) 06:56:00 29.354 - 29.394 USB, Beacon 29.352 USB
STRAND 1 18 Sep 07:01:53 07:06:42 45° 72° (ENE) 07:11:33 ?
Hamsat 18 Sep 07:05:32 07:09:44 58° 100° (E) 07:13:52 145.90 MHz
SO-50 18 Sep 07:21:44 07:24:49 17° 47° (NE) 07:27:54 436.795 FM
JAS-2 18 Sep 07:34:55 07:40:57 75° 285° (WNW) 07:47:48 435.800 - 435.900 CW/SSB, 435.910 FM
KITSAT 1 18 Sep 07:49:43 07:54:49 19° 258° (WSW) 07:59:55 435.175 FM
SO-67 18 Sep 08:11:21 08:14:38 41° 99° (E) 08:17:54 435.3500 MHz FM
AO-7 18 Sep 08:29:11 08:31:14 11° 311° (NW) 08:33:18 29.400 - 29.500 MHz
STRAND 1 18 Sep 08:42:45 08:46:05 18° 266° (W) 08:49:25 ?
Hamsat 18 Sep 08:44:23 08:45:08 10° 295° (WNW) 08:45:53 145.90 MHz
